| time (UTC) | temp F | wind direction | speed MPH | gust MPH | rain 1hr in | rain 24hr in | rain mn in | humidity % | barometer mb |
| 20260506210716 | 47 | 0.0 | 0.0 | 0.00 | 0.02 | 0.02 | 73 | 1015.0 | |
| 20260506205716 | 47 | 144 | 1.0 | 3.0 | 0.00 | 0.02 | 0.02 | 75 | 1014.7 |
| 20260506204717 | 46 | 352 | 0.0 | 2.0 | 0.00 | 0.02 | 0.02 | 76 | 1014.9 |
| 20260506203716 | 47 | 112 | 1.0 | 3.0 | 0.00 | 0.02 | 0.02 | 76 | 1014.6 |
| 20260506202716 | 46 | 108 | 1.0 | 3.0 | 0.00 | 0.02 | 0.02 | 76 | 1014.6 |
| 20260506201716 | 46 | 113 | 1.0 | 2.0 | 0.00 | 0.02 | 0.02 | 77 | 1014.6 |
| 20260506200738 | 46 | 112 | 2.0 | 4.0 | 0.00 | 0.02 | 0.02 | 79 | 1014.6 |
| 20260506195716 | 45 | 87 | 1.0 | 2.0 | 0.00 | 0.02 | 0.02 | 79 | 1014.6 |
| 20260506194716 | 44 | 168 | 1.0 | 3.0 | 0.00 | 0.02 | 0.02 | 81 | 1014.3 |
| 20260506193756 | 45 | 114 | 2.0 | 2.0 | 0.00 | 0.02 | 0.02 | 83 | 1014.3 |
| 20260506192717 | 44 | 0.0 | 0.0 | 0.00 | 0.02 | 0.02 | 85 | 1014.3 | |
| 20260506191716 | 43 | 112 | 0.0 | 2.0 | 0.00 | 0.03 | 0.02 | 86 | 1014.3 |
| 20260506190717 | 43 | 112 | 3.0 | 3.0 | 0.00 | 0.03 | 0.02 | 86 | 1014.0 |
| 20260506185717 | 43 | 112 | 0.0 | 2.0 | 0.00 | 0.03 | 0.02 | 87 | 1014.0 |
| 20260506184716 | 42 | 112 | 0.0 | 1.0 | 0.00 | 0.03 | 0.02 | 88 | 1014.0 |
| 20260506183716 | 42 | 345 | 1.0 | 3.0 | 0.00 | 0.03 | 0.02 | 88 | 1014.0 |
| 20260506182716 | 42 | 112 | 2.0 | 4.0 | 0.00 | 0.03 | 0.02 | 88 | 1014.0 |
| 20260506181716 | 41 | 112 | 0.0 | 1.0 | 0.00 | 0.03 | 0.02 | 89 | 1013.6 |
| 20260506180757 | 41 | 0.0 | 0.0 | 0.00 | 0.03 | 0.02 | 89 | 1013.6 | |
| 20260506175716 | 41 | 153 | 1.0 | 2.0 | 0.00 | 0.03 | 0.02 | 89 | 1013.6 |
| 20260506174716 | 41 | 0.0 | 0.0 | 0.01 | 0.04 | 0.02 | 89 | 1013.6 | |
| 20260506173716 | 41 | 0.0 | 0.0 | 0.01 | 0.04 | 0.02 | 89 | 1013.6 | |
| 20260506172716 | 41 | 0.0 | 0.0 | 0.02 | 0.04 | 0.02 | 89 | 1013.6 | |
| 20260506171716 | 40 | 0.0 | 0.0 | 0.02 | 0.04 | 0.02 | 90 | 1013.6 | |
| 20260506170717 | 40 | 0.0 | 0.0 | 0.02 | 0.04 | 0.02 | 90 | 1013.3 | |
| 20260506165837 | 40 | 0.0 | 0.0 | 0.02 | 0.04 | 0.02 | 91 | 1013.3 | |
| 20260506164716 | 40 | 0.0 | 0.0 | 0.01 | 0.03 | 0.01 | 91 | 1013.3 | |
| 20260506163716 | 39 | 0.0 | 1.0 | 0.01 | 0.03 | 0.01 | 92 | 1013.3 | |
| 20260506162717 | 39 | 0.0 | 0.0 | 0.00 | 0.02 | 0.00 | 92 | 1012.9 | |
| 20260506161717 | 38 | 0.0 | 0.0 | 0.00 | 0.02 | 0.00 | 92 | 1012.9 | |
| 20260506160736 | 38 | 0.0 | 0.0 | 0.00 | 0.02 | 0.00 | 92 | 1012.9 | |
| 20260506155716 | 38 | 0.0 | 0.0 | 0.00 | 0.02 | 0.00 | 92 | 1012.9 | |
| 20260506154716 | 37 | 0.0 | 0.0 | 0.00 | 0.02 | 0.00 | 92 | 1012.6 | |
| 20260506153716 | 37 | 0.0 | 0.0 | 0.00 | 0.02 | 0.00 | 92 | 1012.6 | |
| 20260506152716 | 36 | 0.0 | 0.0 | 0.00 | 0.02 | 0.00 | 92 | 1012.6 | |
| 20260506151716 | 36 | 0.0 | 0.0 | 0.00 | 0.02 | 0.00 | 92 | 1012.6 | |
| 20260506150716 | 35 | 0.0 | 0.0 | 0.00 | 0.02 | 0.00 | 92 | 1012.6 | |
| 20260506145736 | 35 | 0.0 | 0.0 | 0.00 | 0.02 | 0.00 | 92 | 1012.3 | |
| 20260506144718 | 35 | 0.0 | 0.0 | 0.00 | 0.02 | 0.00 | 92 | 1012.3 | |
| 20260506143716 | 35 | 0.0 | 0.0 | 0.00 | 0.02 | 0.00 | 92 | 1012.3 | |
| 20260506142716 | 35 | 0.0 | 0.0 | 0.00 | 0.02 | 0.00 | 92 | 1012.3 | |
| 20260506141716 | 35 | 0.0 | 0.0 | 0.00 | 0.02 | 0.00 | 92 | 1012.3 | |
| 20260506140716 | 35 | 0.0 | 0.0 | 0.00 | 0.02 | 0.00 | 92 | 1012.3 | |
| 20260506135737 | 35 | 0.0 | 0.0 | 0.00 | 0.02 | 0.00 | 92 | 1012.3 | |
| 20260506134717 | 35 | 0.0 | 0.0 | 0.00 | 0.02 | 0.00 | 92 | 1012.3 | |
| 20260506133717 | 34 | 0.0 | 0.0 | 0.00 | 0.02 | 0.00 | 92 | 1012.3 | |
| 20260506132717 | 34 | 0.0 | 0.0 | 0.00 | 0.02 | 0.00 | 91 | 1012.3 | |
| 20260506131716 | 34 | 0.0 | 0.0 | 0.00 | 0.02 | 0.00 | 91 | 1011.9 | |
| 20260506130716 | 34 | 0.0 | 0.0 | 0.00 | 0.02 | 0.00 | 91 | 1012.3 | |
| 20260506125738 | 34 | 0.0 | 0.0 | 0.00 | 0.02 | 0.00 | 91 | 1012.3 | |
| 20260506124716 | 34 | 0.0 | 0.0 | 0.00 | 0.02 | 0.00 | 91 | 1011.9 | |
| 20260506123716 | 34 | 0.0 | 0.0 | 0.00 | 0.02 | 0.00 | 91 | 1012.3 | |
| 20260506122716 | 34 | 0.0 | 0.0 | 0.00 | 0.02 | 0.00 | 91 | 1011.9 | |
| 20260506121717 | 34 | 0.0 | 0.0 | 0.00 | 0.02 | 0.00 | 91 | 1011.9 | |
| 20260506120717 | 34 | 0.0 | 0.0 | 0.00 | 0.03 | 0.00 | 91 | 1011.9 | |
| 20260506115736 | 35 | 0.0 | 0.0 | 0.00 | 0.03 | 0.00 | 91 | 1011.9 | |
| 20260506114717 | 35 | 0.0 | 0.0 | 0.00 | 0.04 | 0.00 | 90 | 1011.9 | |
| 20260506113756 | 35 | 0.0 | 0.0 | 0.00 | 0.04 | 0.00 | 90 | 1011.9 | |
| 20260506112757 | 34 | 0.0 | 0.0 | 0.00 | 0.04 | 0.00 | 90 | 1011.9 | |
| 20260506111716 | 35 | 0.0 | 0.0 | 0.00 | 0.04 | 0.00 | 90 | 1011.9 | |
| 20260506110717 | 35 | 0.0 | 0.0 | 0.00 | 0.04 | 0.00 | 90 | 1011.9 | |
| 20260506105716 | 35 | 0.0 | 0.0 | 0.00 | 0.04 | 0.00 | 90 | 1011.9 | |
| 20260506104717 | 35 | 0.0 | 0.0 | 0.00 | 0.04 | 0.00 | 90 | 1011.9 | |
| 20260506103716 | 35 | 337 | 1.0 | 1.0 | 0.00 | 0.04 | 0.00 | 90 | 1011.9 |
| 20260506102716 | 34 | 0.0 | 0.0 | 0.00 | 0.04 | 0.00 | 90 | 1011.9 | |
| 20260506101717 | 34 | 0.0 | 0.0 | 0.00 | 0.04 | 0.00 | 90 | 1011.9 | |
| 20260506100717 | 34 | 0.0 | 0.0 | 0.00 | 0.04 | 0.00 | 90 | 1011.6 | |
| 20260506095716 | 34 | 0.0 | 0.0 | 0.00 | 0.04 | 0.00 | 89 | 1011.6 | |
| 20260506094716 | 34 | 0.0 | 0.0 | 0.00 | 0.04 | 0.00 | 89 | 1011.6 | |
| 20260506093716 | 34 | 0.0 | 0.0 | 0.00 | 0.05 | 0.00 | 89 | 1011.6 | |
| 20260506092716 | 34 | 0.0 | 0.0 | 0.00 | 0.05 | 0.00 | 89 | 1011.9 | |
| 20260506091717 | 34 | 0.0 | 0.0 | 0.00 | 0.06 | 0.00 | 89 | 1011.6 | |
| 20260506090716 | 35 | 337 | 1.0 | 1.0 | 0.00 | 0.06 | 0.00 | 89 | 1011.6 |
| 20260506085716 | 34 | 0.0 | 0.0 | 0.00 | 0.06 | 0.00 | 89 | 1011.9 | |
| 20260506084716 | 34 | 337 | 0.0 | 1.0 | 0.00 | 0.06 | 0.00 | 89 | 1011.6 |
| 20260506083716 | 34 | 0.0 | 0.0 | 0.00 | 0.06 | 0.00 | 89 | 1011.6 | |
| 20260506082716 | 35 | 0.0 | 0.0 | 0.00 | 0.06 | 0.00 | 89 | 1011.6 | |
| 20260506081717 | 35 | 0.0 | 0.0 | 0.00 | 0.06 | 0.00 | 89 | 1011.6 | |
| 20260506080717 | 35 | 0.0 | 0.0 | 0.00 | 0.06 | 0.00 | 89 | 1011.6 | |
| 20260506072718 | 37 | 0.0 | 0.0 | 0.00 | 0.06 | 0.06 | 88 | 1011.6 | |
| 20260506071716 | 37 | 0.0 | 0.0 | 0.00 | 0.06 | 0.06 | 87 | 1011.2 | |
| 20260506070717 | 38 | 0.0 | 0.0 | 0.00 | 0.06 | 0.06 | 87 | 1011.2 | |
| 20260506061716 | 39 | 12 | 1.0 | 2.0 | 0.00 | 0.08 | 0.06 | 85 | 1010.9 |
| 20260506060717 | 40 | 0.0 | 0.0 | 0.00 | 0.08 | 0.06 | 84 | 1010.9 | |
| 20260506050717 | 41 | 315 | 1.0 | 3.0 | 0.00 | 0.10 | 0.06 | 83 | 1010.6 |
| 20260506044717 | 42 | 0.0 | 0.0 | 0.00 | 0.10 | 0.06 | 81 | 1010.5 | |
| 20260506043716 | 42 | 0.0 | 0.0 | 0.00 | 0.10 | 0.06 | 81 | 1010.2 | |
| 20260506042717 | 43 | 319 | 2.0 | 3.0 | 0.00 | 0.10 | 0.06 | 80 | 1010.2 |
| 20260506041757 | 43 | 320 | 2.0 | 4.0 | 0.00 | 0.10 | 0.06 | 78 | 1010.2 |
| 20260506040757 | 44 | 315 | 2.0 | 4.0 | 0.00 | 0.11 | 0.06 | 78 | 1010.2 |
| 20260506035717 | 44 | 0.0 | 0.0 | 0.00 | 0.11 | 0.06 | 77 | 1010.2 | |
| 20260506034717 | 44 | 0.0 | 0.0 | 0.00 | 0.11 | 0.06 | 77 | 1010.2 | |
| 20260506033716 | 44 | 315 | 1.0 | 3.0 | 0.00 | 0.11 | 0.06 | 77 | 1009.9 |
| 20260506032716 | 44 | 308 | 3.0 | 5.0 | 0.00 | 0.11 | 0.06 | 77 | 1009.9 |
| 20260506031737 | 45 | 355 | 1.0 | 4.0 | 0.00 | 0.11 | 0.06 | 77 | 1009.6 |
| 20260506030716 | 45 | 315 | 1.0 | 3.0 | 0.00 | 0.11 | 0.06 | 78 | 1009.5 |
| 20260506025716 | 45 | 325 | 3.0 | 4.0 | 0.00 | 0.11 | 0.06 | 77 | 1009.5 |
| 20260506024716 | 45 | 241 | 1.0 | 4.0 | 0.00 | 0.11 | 0.06 | 77 | 1009.5 |
| 20260506023710 | 45 | 112 | 1.0 | 4.0 | 0.00 | 0.11 | 0.06 | 77 | 1009.5 |
| 20260506022731 | 45 | 302 | 1.0 | 2.0 | 0.00 | 0.11 | 0.06 | 77 | 1009.2 |
| 20260506021710 | 45 | 315 | 1.0 | 2.0 | 0.00 | 0.11 | 0.06 | 75 | 1009.2 |
| 20260506020710 | 46 | 0.0 | 0.0 | 0.00 | 0.11 | 0.06 | 74 | 1009.2 | |
| 20260506015710 | 46 | 199 | 0.0 | 2.0 | 0.00 | 0.11 | 0.06 | 75 | 1009.2 |
| 20260506014711 | 46 | 127 | 3.0 | 4.0 | 0.00 | 0.11 | 0.06 | 75 | 1009.2 |
| 20260506013710 | 46 | 324 | 1.0 | 3.0 | 0.00 | 0.11 | 0.06 | 74 | 1009.2 |
| 20260506012711 | 47 | 112 | 2.0 | 5.0 | 0.00 | 0.11 | 0.06 | 74 | 1008.9 |
| 20260506011710 | 47 | 103 | 4.0 | 6.0 | 0.00 | 0.12 | 0.06 | 75 | 1008.9 |
| 20260506010710 | 46 | 72 | 2.0 | 4.0 | 0.00 | 0.12 | 0.06 | 75 | 1009.2 |
| 20260506005731 | 46 | 0.0 | 0.0 | 0.00 | 0.12 | 0.06 | 75 | 1008.9 | |
| 20260506004731 | 46 | 126 | 3.0 | 7.0 | 0.00 | 0.12 | 0.06 | 76 | 1008.9 |
| 20260506003711 | 46 | 121 | 2.0 | 4.0 | 0.00 | 0.13 | 0.06 | 76 | 1009.2 |
| 20260506002710 | 46 | 112 | 0.0 | 1.0 | 0.00 | 0.14 | 0.06 | 75 | 1008.9 |
| 20260506001710 | 47 | 126 | 4.0 | 8.0 | 0.00 | 0.14 | 0.06 | 75 | 1008.9 |
| 20260506000710 | 47 | 7 | 3.0 | 4.0 | 0.00 | 0.14 | 0.06 | 76 | 1008.9 |
| 20260505235710 | 46 | 112 | 1.0 | 3.0 | 0.00 | 0.14 | 0.06 | 77 | 1008.9 |
| 20260505234710 | 46 | 73 | 2.0 | 3.0 | 0.00 | 0.15 | 0.06 | 78 | 1008.5 |
| 20260505233710 | 46 | 121 | 4.0 | 5.0 | 0.00 | 0.15 | 0.06 | 78 | 1008.5 |
| 20260505232710 | 46 | 112 | 1.0 | 2.0 | 0.00 | 0.16 | 0.06 | 78 | 1008.5 |
| 20260505231710 | 46 | 183 | 3.0 | 5.0 | 0.00 | 0.16 | 0.06 | 78 | 1008.5 |
| 20260505230710 | 46 | 162 | 1.0 | 4.0 | 0.00 | 0.16 | 0.06 | 79 | 1008.5 |
| 20260505225711 | 46 | 180 | 2.0 | 4.0 | 0.00 | 0.18 | 0.06 | 80 | 1008.5 |
| 20260505224730 | 45 | 112 | 1.0 | 2.0 | 0.00 | 0.18 | 0.06 | 80 | 1008.5 |
| 20260505223710 | 45 | 95 | 3.0 | 4.0 | 0.00 | 0.18 | 0.06 | 80 | 1008.2 |
| 20260505222711 | 45 | 98 | 2.0 | 3.0 | 0.00 | 0.18 | 0.06 | 81 | 1008.5 |
| 20260505221710 | 45 | 202 | 1.0 | 3.0 | 0.00 | 0.18 | 0.06 | 81 | 1008.2 |
| 20260505220710 | 46 | 125 | 3.0 | 5.0 | 0.00 | 0.18 | 0.06 | 82 | 1008.5 |
| 20260505215710 | 46 | 183 | 1.0 | 3.0 | 0.00 | 0.18 | 0.06 | 81 | 1008.2 |
| 20260505214710 | 46 | 126 | 0.0 | 2.0 | 0.00 | 0.18 | 0.06 | 81 | 1008.2 |
| 20260505213710 | 46 | 105 | 3.0 | 6.0 | 0.00 | 0.18 | 0.06 | 80 | 1007.8 |
| 20260505212711 | 46 | 116 | 3.0 | 5.0 | 0.00 | 0.18 | 0.06 | 80 | 1007.8 |
| 20260505211710 | 46 | 120 | 1.0 | 3.0 | 0.00 | 0.18 | 0.06 | 81 | 1007.5 |